[[{"header":{"parameterUnit":"m.s-1","parameterCategory":1,"la1":30.2991,"la2":30.254,"lo1":-89.0895,"lo2":-89.0444,"dy":0.0017,"dx":0.0017,"nx":28,"ny":28,"refTime":"2024-10-16T09:00:00:Z","depth":0,"parameterNumber":2,"parameterNumberName":"U-component_of_WINDS"},"data":[0,0,0,0,0,0,0,0,0,0,0,0,0,0,0,0,0,0,0,0,0,0,0,0,0,0,0,0,0,0,0,0,0,0,0,0,0,0,0,0,0,0,0,0,0,0,0,0,0,0,0,0,0,0,0,0,0,0,-4.4927,-4.4927,0,-4.4994,-4.4994,-4.4995,-4.4878,-4.4874,-4.487,-4.4866,-4.4934,-4.4939,-4.4945,0,0,0,0,0,0,0,0,0,0,0,0,0,-4.4695,-4.47,-4.4926,-4.4927,-4.4928,-4.4993,-4.4994,-4.4995,-4.4878,-4.4874,-4.4869,-4.4864,-4.4932,-4.4939,-4.4945,0,0,0,0,0,0,0,0,0,0,0,0,0,-4.4782,-4.4702,-4.4926,-4.4878,-4.4874,-4.4993,-4.4994,-4.4996,-4.488,-4.4874,-4.4868,-4.4862,-4.493,-4.4938,-4.4946,-4.5116,0,0,-4.4971,-4.4975,0,0,0,0,0,0,0,0,-4.4778,-4.4791,-4.4884,-4.4881,-4.4877,-4.4921,-4.4938,-4.5036,-4.4881,-4.4877,-4.4866,-4.4859,-4.4935,-4.4942,-4.4968,-4.5119,-4.5122,-4.4972,-4.4977,-4.4981,-4.4983,0,0,0,0,0,0,0,-4.4772,-4.4787,-4.4953,-4.4886,-4.4882,-4.4852,-4.4858,-4.4956,-4.4938,-4.4877,-4.4869,-4.4879,-4.4932,-4.496,-4.4968,-4.5123,-4.4972,-4.4979,-4.4984,-4.4987,-4.5415,-4.5421,0,0,0,0,0,0,-4.4772,-4.4783,-4.4951,-4.4955,-4.4812,-4.4861,-4.4867,-4.4913,-4.4937,-4.4935,-4.4884,-4.4873,-4.4949,-4.4959,-4.497,-4.517,-4.4981,-4.4988,-4.4993,-4.5409,-4.5417,-4.5424,0,0,0,0,0,0,-4.4767,-4.4788,-4.4948,-4.4867,-4.4885,-4.4871,-4.4924,-4.4918,-4.4946,-4.4942,-4.4938,-4.4916,-4.4945,-4.4959,-4.508,-4.5171,-4.4992,-4.4999,-4.5401,-4.5411,-4.542,-4.5572,0,0,0,0,0,0,-4.4761,-4.4787,-4.4852,-4.4869,-4.489,-4.5058,-4.4929,-4.4923,-4.4961,-4.4947,-4.4971,-4.4969,-4.4941,-4.5069,-4.5089,-4.5179,-4.5006,-4.5393,-4.5406,-4.5417,-4.5559,-4.5586,-4.5609,0,0,0,0,0,-4.4753,-4.4892,-4.4856,-4.4877,-4.4971,-4.5064,-4.5075,-4.504,-4.4968,-4.5033,-4.503,-4.4969,-4.5157,-4.5082,-4.5103,-4.5198,-4.5387,-4.5402,-4.5416,-4.5548,-4.558,-4.5608,0,0,0,0,0,0,-4.4886,-4.4893,-4.4853,-4.5002,-4.5033,-4.5044,-4.5125,-4.5076,-4.5128,-4.5113,-4.5067,-4.5073,-4.5204,-4.5213,-4.5129,-4.5363,-4.526,-4.528,-4.5353,-4.5384,-4.5408,-4.5404,-4.5013,0,0,0,0,0,-4.4932,-4.5008,-4.501,-4.514,-4.5158,-4.5139,-4.5178,-4.5148,-4.5178,-4.5191,-4.5197,-4.5228,-4.5294,-4.5339,-4.54,-4.5559,-4.5562,-4.5634,-4.5659,-4.5679,-4.5697,-4.5781,-4.5814,-4.5471,-4.5471,-4.5471,0,0,-4.5029,-4.5042,-4.5093,-4.5167,-4.5188,-4.5267,-4.5151,-4.5239,-4.5297,-4.5204,-4.532,-4.5325,-4.5357,-4.5498,-4.556,-4.5509,-4.5792,-4.5698,-4.5714,-4.5721,-4.58,-4.5832,-4.5861,-4.5481,-4.5479,-4.5478,0,0,-4.5246,-4.5264,-4.5375,-4.5397,-4.543,-4.5416,-4.5443,-4.5461,-4.5461,-4.5576,-4.5508,-4.5575,-4.569,-4.5716,-4.5744,-4.5969,-4.5914,-4.599,-4.612,-4.6203,-4.623,-4.6254,-4.6335,-4.6364,-4.6007,-4.6008,-4.6008,0,-4.5363,-4.5479,-4.5438,-4.5531,-4.5565,-4.5484,-4.5596,-4.562,-4.5671,-4.5697,-4.5638,-4.578,-4.5796,-4.5942,-4.5997,-4.6022,-4.6051,-4.5988,-4.623,-4.6253,-4.6274,-4.6351,-4.6382,-4.6017,-4.6016,-4.6015,-4.6014,0,-4.5621,-4.5702,-4.5788,-4.5839,-4.5883,-4.5985,-4.5958,-4.6008,-4.5973,-4.5965,-4.6083,-4.6099,-4.6161,-4.6193,-4.616,-4.6334,-4.6301,-4.6237,-4.6134,-4.6317,-4.6388,-4.6417,-4.603,-4.6026,-4.6024,-4.6021,0,0,-4.5925,-4.5951,-4.5984,-4.6006,-4.6035,-4.6097,-4.6195,-4.6256,-4.6299,-4.6336,-4.6417,-4.6515,-4.6456,-4.6488,-4.6457,-4.6529,-4.6707,-4.6456,-4.6456,-4.6503,-4.69,-4.6949,-4.6984,-4.667,-4.6675,-4.668,-4.6897,0,-4.6141,-4.6311,-4.6276,-4.6442,-4.6516,-4.644,-4.6524,-4.6551,-4.6546,-4.6608,-4.6601,-4.6672,-4.6588,-4.6607,-4.6675,-4.6671,-4.6786,-4.6655,-4.6745,-4.6749,-4.6741,-4.7021,-4.7074,-4.7279,-4.6925,-4.693,-4.6933,0,-4.6417,-4.6465,-4.6639,-4.6656,-4.6686,-4.6763,-4.6816,-4.6876,-4.6904,-4.6895,-4.693,-4.6885,-4.6981,-4.6875,-4.7006,-4.6918,-4.6952,-4.6955,-4.6962,-4.6971,-4.6853,-4.7038,-4.7343,-4.7375,-4.6976,-4.6973,-4.697,0,-4.6624,-4.6731,-4.6849,-4.687,-4.6892,-4.6948,-4.696,-4.6982,-4.7021,-4.7066,-4.7091,-4.7147,-4.7178,-4.7222,-4.7193,-4.7118,-4.733,-4.7221,-4.7325,-4.7326,-4.7374,-4.7372,-4.7691,-4.7395,-4.7394,-4.7393,-4.7393,0,-4.687,-4.6979,-4.6941,-4.7014,-4.7134,-4.7092,-4.7211,-4.7214,-4.7234,-4.7305,-4.7241,-4.7309,-4.7266,-4.733,-4.7307,-4.742,-4.7434,-4.7429,-4.7422,-4.7436,-4.7437,-4.7459,-4.7445,-4.7402,-4.74,-4.7398,-4.7397,0,-4.7122,-4.71,-4.7224,-4.7234,-4.7239,-4.7327,-4.7336,-4.7403,-4.7392,-4.7483,-4.7502,-4.7485,-4.7557,-4.7531,-4.7608,-4.7593,-4.7736,-4.771,-4.7728,-4.7722,-4.7827,-4.7818,-4.8172,-4.8217,-4.7891,-4.7894,-4.7897,0,-4.7281,-4.7364,-4.7383,-4.7426,-4.7442,-4.7513,-4.7552,-4.7513,-4.7556,-4.7593,-4.7656,-4.7722,-4.7774,-4.7892,-4.7887,-4.7945,-4.792,-4.804,-4.7929,-4.794,-4.7923,-4.7919,-4.7927,-4.8063,-4.8067,-4.807,-4.8073,0,-4.7567,-4.7552,-4.7611,-4.7667,-4.7716,-4.7757,-4.7793,-4.7832,-4.7794,-4.7846,-4.7919,-4.7959,-4.8037,-4.8104,-4.8156,-4.8167,-4.8115,-4.8107,-4.8135,-4.815,-4.8158,-4.8156,-4.779,-4.81,-4.8097,-4.8095,-4.8094,-4.8093,-4.7778,-4.7848,-4.7872,-4.794,-4.7962,-4.7997,-4.8061,-4.8058,-4.8118,-4.8179,-4.8152,-4.8236,-4.8261,-4.8325,-4.8343,-4.8408,-4.8362,-4.8401,-4.8411,-4.8422,-4.8436,-4.8146,-4.8417,-4.8416,-4.8416,-4.8415,-4.8414,0,-4.8061,-4.8073,-4.8136,-4.8188,-4.8241,-4.8186,-4.8222,-4.827,-4.8346,-4.8373,-4.8425,-4.8508,-4.8572,-4.8571,-4.863,-4.8683,-4.866,-4.8699,-4.8696,-4.8699,-4.8474,-4.8445,-4.8717,-4.8717,-4.8717,-4.8717,-4.8717,-4.8717,-4.8215,-4.833,-4.8318,-4.8443,-4.8453,-4.8536,-4.8562,-4.8593,-4.8615,-4.8711,-4.8764,-4.8763,-4.8779,-4.8838,-4.8894,-4.8892,-4.8917,-4.8966,-4.8955,-4.8745,-4.8715,-4.8687,-4.8659,-4.8972,-4.8972,-4.9175,-4.9177,-4.9178]},{"header":{"parameterUnit":"m.s-1","parameterCategory":1,"la1":30.2991,"la2":30.254,"lo1":-89.0895,"lo2":-89.0444,"dy":0.0017,"dx":0.0017,"nx":28,"ny":28,"refTime":"2024-10-16T09:00:00:Z","depth":0,"parameterNumber":3,"parameterNumberName":"V-component_of_WINDS"},"data":[0,0,0,0,0,0,0,0,0,0,0,0,0,0,0,0,0,0,0,0,0,0,0,0,0,0,0,0,0,0,0,0,0,0,0,0,0,0,0,0,0,0,0,0,0,0,0,0,0,0,0,0,0,0,0,0,0,0,-8.6395,-8.6396,0,-8.6506,-8.6507,-8.6508,-8.6391,-8.6386,-8.6382,-8.6377,-8.6484,-8.6491,-8.6498,0,0,0,0,0,0,0,0,0,0,0,0,0,-8.6073,-8.608,-8.6395,-8.6396,-8.6398,-8.6506,-8.6507,-8.6509,-8.6391,-8.6386,-8.638,-8.6375,-8.6482,-8.649,-8.6499,0,0,0,0,0,0,0,0,0,0,0,0,0,-8.6201,-8.6082,-8.6394,-8.6352,-8.635,-8.6505,-8.6507,-8.6509,-8.6393,-8.6386,-8.6379,-8.6373,-8.6479,-8.6489,-8.65,-8.6701,0,0,-8.6532,-8.6537,0,0,0,0,0,0,0,0,-8.6194,-8.6213,-8.6357,-8.6355,-8.6353,-8.6428,-8.6433,-8.6573,-8.6394,-8.6376,-8.6377,-8.6369,-8.647,-8.6481,-8.6517,-8.6706,-8.671,-8.6533,-8.6539,-8.6544,-8.6547,0,0,0,0,0,0,0,-8.6185,-8.6208,-8.6438,-8.6359,-8.6357,-8.6325,-8.6336,-8.6459,-8.646,-8.6377,-8.6369,-8.6384,-8.6468,-8.6507,-8.6518,-8.6712,-8.6533,-8.6542,-8.6549,-8.6553,-8.7068,-8.7075,0,0,0,0,0,0,-8.6182,-8.6201,-8.6435,-8.6442,-8.6255,-8.6336,-8.6348,-8.641,-8.6458,-8.6459,-8.639,-8.6378,-8.6492,-8.6506,-8.6522,-8.6759,-8.6544,-8.6554,-8.656,-8.7061,-8.707,-8.7078,0,0,0,0,0,0,-8.6176,-8.6204,-8.643,-8.6319,-8.6346,-8.6349,-8.642,-8.6416,-8.6455,-8.6468,-8.6466,-8.643,-8.6487,-8.6507,-8.6657,-8.6761,-8.6559,-8.6568,-8.7052,-8.7064,-8.7074,-8.7235,0,0,0,0,0,0,-8.6167,-8.6203,-8.6281,-8.6322,-8.6352,-8.6567,-8.6426,-8.6423,-8.6474,-8.646,-8.6505,-8.6506,-8.6483,-8.6642,-8.6668,-8.6772,-8.6577,-8.7043,-8.7057,-8.707,-8.7221,-8.7251,-8.7276,0,0,0,0,0,-8.6156,-8.6321,-8.6286,-8.6315,-8.6451,-8.6573,-8.659,-8.6563,-8.6483,-8.6561,-8.6568,-8.6504,-8.6745,-8.6658,-8.6686,-8.6795,-8.7036,-8.7053,-8.7069,-8.7208,-8.7245,-8.7275,0,0,0,0,0,0,-8.629,-8.6326,-8.6287,-8.6471,-8.652,-8.6553,-8.665,-8.6602,-8.6674,-8.6657,-8.6618,-8.6629,-8.6789,-8.6806,-8.6709,-8.6991,-8.6877,-8.69,-8.6974,-8.7008,-8.7035,-8.7027,-8.6585,0,0,0,0,0,-8.6341,-8.644,-8.6465,-8.6624,-8.6651,-8.6647,-8.6699,-8.6674,-8.6723,-8.6742,-8.6761,-8.6809,-8.6895,-8.6952,-8.7032,-8.7223,-8.7229,-8.7311,-8.7339,-8.7361,-8.7381,-8.7481,-8.7518,-8.7132,-8.7132,-8.7132,0,0,-8.6447,-8.6479,-8.6544,-8.6652,-8.6687,-8.6788,-8.6665,-8.6777,-8.6851,-8.6758,-8.6902,-8.6918,-8.6968,-8.7139,-8.7215,-8.7158,-8.7489,-8.7382,-8.74,-8.7408,-8.7502,-8.7539,-8.7571,-8.7143,-8.7141,-8.714,0,0,-8.6692,-8.6727,-8.6864,-8.6902,-8.6958,-8.6953,-8.6986,-8.7027,-8.7034,-8.7178,-8.711,-8.7196,-8.7345,-8.7384,-8.7423,-8.7682,-8.7625,-8.7708,-8.7853,-8.7951,-8.7981,-8.8008,-8.8099,-8.8132,-8.7728,-8.7729,-8.7729,0,-8.6817,-8.6969,-8.6939,-8.7057,-8.7105,-8.7028,-8.7164,-8.7201,-8.728,-8.7314,-8.725,-8.7436,-8.7464,-8.7642,-8.7706,-8.774,-8.7774,-8.7703,-8.798,-8.8006,-8.803,-8.8117,-8.8151,-8.7739,-8.7737,-8.7736,-8.7735,0,-8.7118,-8.7224,-8.7327,-8.7407,-8.7467,-8.7593,-8.758,-8.7644,-8.7613,-8.7615,-8.7761,-8.7792,-8.7877,-8.7917,-8.7888,-8.8091,-8.8054,-8.7986,-8.7871,-8.8078,-8.8158,-8.8191,-8.7753,-8.7749,-8.7746,-8.7744,0,0,-8.7451,-8.7513,-8.7551,-8.7586,-8.7641,-8.7722,-8.7843,-8.7928,-8.7983,-8.8038,-8.8138,-8.8266,-8.8203,-8.8247,-8.8221,-8.8308,-8.8509,-8.8228,-8.8228,-8.8278,-8.8733,-8.8784,-8.8823,-8.8471,-8.8478,-8.8483,-8.8728,0,-8.7697,-8.7911,-8.7887,-8.8089,-8.8186,-8.8113,-8.8218,-8.8262,-8.8267,-8.8347,-8.835,-8.8442,-8.8352,-8.8378,-8.8461,-8.8467,-8.8599,-8.8449,-8.8561,-8.8566,-8.8551,-8.8865,-8.8919,-8.915,-8.8759,-8.8765,-8.8769,0,-8.8013,-8.8082,-8.8296,-8.8335,-8.8375,-8.8471,-8.8545,-8.8624,-8.8671,-8.8668,-8.8718,-8.8676,-8.8795,-8.8678,-8.884,-8.8738,-8.8782,-8.8792,-8.88,-8.8809,-8.868,-8.8881,-8.9223,-8.9257,-8.8818,-8.8814,-8.8811,0,-8.8233,-8.838,-8.8526,-8.8558,-8.8608,-8.8677,-8.8701,-8.8741,-8.8793,-8.8858,-8.8891,-8.8968,-8.901,-8.9069,-8.9048,-8.8965,-8.9213,-8.9095,-8.9212,-8.9213,-8.9268,-8.9264,-8.962,-8.9298,-8.9297,-8.9296,-8.9296,0,-8.851,-8.8643,-8.8626,-8.8716,-8.8862,-8.8831,-8.8976,-8.899,-8.9026,-8.9116,-8.9056,-8.9141,-8.9108,-8.919,-8.9174,-8.9309,-8.9329,-8.9328,-8.9322,-8.9333,-8.9333,-8.9361,-8.9344,-8.9305,-8.9303,-8.9302,-8.93,0,-8.8782,-8.8776,-8.893,-8.8965,-8.8977,-8.9083,-8.9111,-8.9194,-8.9194,-8.9307,-8.9332,-8.9331,-8.9424,-8.9409,-8.9511,-8.95,-8.9669,-8.9644,-8.9655,-8.9648,-8.9766,-8.9755,-9.0151,-9.0201,-8.9847,-8.9851,-8.9853,0,-8.8959,-8.9059,-8.9106,-8.9163,-8.9192,-8.9284,-8.9337,-8.931,-8.9367,-8.9428,-8.9503,-8.9591,-8.966,-8.9812,-8.9818,-8.9896,-8.9871,-9.0005,-8.9882,-8.989,-8.9872,-8.9866,-8.9875,-9.0029,-9.0033,-9.0036,-9.0039,0,-8.9273,-8.9265,-8.9346,-8.9426,-8.9491,-8.9552,-8.9606,-8.9655,-8.9633,-8.97,-8.9795,-8.9849,-8.9954,-9.0041,-9.0114,-9.0134,-9.0083,-9.0077,-9.0108,-9.0121,-9.0122,-9.0122,-8.972,-9.0068,-9.0065,-9.0063,-9.0062,-9.006,-8.9502,-8.9588,-8.9634,-8.9725,-8.9764,-8.9816,-8.9896,-8.9906,-8.9986,-9.0071,-9.0049,-9.0157,-9.0199,-9.0291,-9.032,-9.0402,-9.0352,-9.0397,-9.0408,-9.042,-9.0434,-9.011,-9.0415,-9.0414,-9.0413,-9.0412,-9.0412,0,-8.9813,-8.9839,-8.9923,-9.0002,-9.0073,-9.0021,-9.0078,-9.014,-9.0236,-9.0281,-9.0351,-9.0459,-9.0544,-9.0557,-9.0636,-9.0699,-9.0677,-9.072,-9.0715,-9.072,-9.0474,-9.0439,-9.0737,-9.0737,-9.0737,-9.0737,-9.0737,-9.0736,-8.9983,-9.0125,-9.0122,-9.0282,-9.0306,-9.0413,-9.045,-9.0497,-9.0533,-9.0658,-9.0728,-9.0737,-9.0768,-9.0849,-9.0923,-9.0924,-9.0956,-9.1009,-9.1001,-9.077,-9.0738,-9.0707,-9.0674,-9.1016,-9.1016,-9.124,-9.1242,-9.1244]}]]